User: anonymous   Login
Location: Caltech
(34.1382°N, 118.1253°W)
Time: 03:02:22
(UTC-07:00)
Language:

Cosmos 2251 Rocket - Orbit

View from above orbital plane
View from above orbital plane
View from above satellite
View from above satellite

Ground track
Ground track

The orbit data is extracted from the following two-line orbital elements,

1 22676U 93036B   17232.87015018 -.00000065  00000-0 -14022-4 0  9995
2 22676  74.0401  63.5735 0017981  74.2520 286.0613 14.33931448264611
Epoch (UTC): 20 August 2017 20:53:00
Eccentricity: 0.0017981
inclination: 74.0401°
perigee height: 766 km
apogee height: 791 km
right ascension of ascending node: 63.5735°
argument of perigee: 74.2520°
revolutions per day: 14.33931448
mean anomaly at epoch: 286.0613°
orbit number at epoch: 26461

The dashed part of the orbit path shows where the satellite is in the earth's shadow,  

DLR